Flag for Austria Weather past 2 weeks in Oberpullendorf, Burgenland, Austria

Now
64 °F

Mild.


Feels Like: 64 °F
Forecast: 53 / 73 °F
Wind: 2 mph from Northwest

Location: Eisenstadt

Current Time: Jul 31, 2015 at 12:06:38 AM

Latest Report: Jul 30, 2015 at 10:00 PM


Visibility: N/A

Pressure: 29.96 "Hg

Humidity: 81%

Dew point: 58 °F

Location of OberpullendorfLocation

Historic Weather in Oberpullendorf — Graph

°F

Oberpullendorf temperature yesterday

Maximum temperature yesterday: 73 °F (at 3:00 PM)
Minimum temperature yesterday: 59 °F (at 6:00 AM)
Average temperature yesterday: 66 °F

Past Weeks' High & Low Weather Summary

 TemperatureHumidityPressure
High97 °F (Jul 22, 4:00 PM)96% (Jul 29, 11:00 PM)30.10 "Hg (Jul 29, 11:00 PM)
Low58 °F (Jul 29, 8:00 AM)21% (Jul 17, 4:00 PM)29.67 "Hg (Jul 25, 3:00 PM)
Average75 °F62%29.88 "Hg
* Reported Jul 15 10:00 PM — Jul 30 10:00 PM, Oberpullendorf, Weather by CustomWeather, © 2015

Note: Actual official high and low records may vary slightly from our data, if they occured in-between our weather recording intervals... More about our weather records

Advertising

Oberpullendorf weather history for previous 24 hours

 ConditionsComfort  
Time TempWeatherWind HumidityBarometerVisibility
10:00 PM
Thu, Jul 30
64 °FMild.2 mph81%29.96 "HgN/A
9:00 PM65 °FMild.2 mph75%29.94 "HgN/A
8:00 PM69 °FOvercast.2 mph61%29.93 "Hg12 mi
7:00 PM69 °FOvercast.3 mph58%29.92 "Hg12 mi
6:00 PM70 °FMild.3 mph52%29.92 "HgN/A
5:00 PM71 °FPartly sunny.6 mph53%29.93 "Hg12 mi
4:00 PM73 °FMild.3 mph48%29.92 "HgN/A
3:00 PM73 °FMild.3 mph42%29.93 "HgN/A
2:00 PM72 °FPartly sunny.1 mph43%29.94 "Hg17 mi
1:00 PM71 °FMild.1 mph46%29.95 "HgN/A
12:00 PM69 °FMild.1 mph49%29.96 "HgN/A
11:00 AM66 °FOvercast.3 mph56%29.97 "Hg17 mi
10:00 AM66 °FMild.5 mph61%29.96 "HgN/A
9:00 AM62 °FCool.2 mph79%29.97 "HgN/A
8:00 AM60 °FOvercast.2 mph88%29.97 "Hg9 mi
6:00 AM59 °FOvercast.2 mph89%29.93 "Hg12 mi
5:00 AM60 °FCool.3 mph85%29.93 "HgN/A
4:00 AM62 °FOvercast.5 mph85%29.90 "Hg6 mi
3:00 AM62 °FCool.3 mph95%29.90 "HgN/A
2:00 AM61 °FLight rain. Overcast.1 mph96%29.89 "Hg6 mi
1:00 AM61 °FFog.1 mph96%29.89 "HgN/A
12:00 AM61 °FFog.2 mph96%29.87 "HgN/A
Weather by CustomWeather, © 2015

See weather overviewHow to use our weather pages